Simultaneous Nadir Overpasses (SNOs) Predictions

Prediction of SNOs between NOAA-20 and PACE Satellite Orbit:

Table of predicted SNOs for the next 14.0 days since TLE Epoch: 5/24/2025
Index Date (NOAA-20) Time (NOAA-20) Lat,Lon (NOAA-20) SZA (NOAA-20 ) Date (PACE) Time (PACE) Lat,Lon (PACE) SZA (PACE ) Distance(km) Time Diff (sec)
1 05/25/2025 05:50:08 -79.50,-122.22 119.62 05/25/2025 05:50:48 -79.50,-122.25 119.64 0.50 40
2 05/25/2025 06:40:44 79.20, 47.47 59.87 05/25/2025 06:39:51 79.21, 47.35 59.92 2.63 53
3 05/27/2025 11:07:16 79.40, -20.68 59.84 05/27/2025 11:07:08 79.40, -20.67 59.84 0.09 8
4 05/29/2025 15:33:48 79.56, -88.62 59.78 05/29/2025 15:34:25 79.56, -88.55 59.75 1.53 37
5 05/29/2025 16:24:25 -79.29, 80.84 120.68 05/29/2025 16:23:29 -79.29, 80.91 120.67 1.52 56
6 05/31/2025 20:50:56 -79.43, 13.19 120.76 05/31/2025 20:50:45 -79.42, 13.28 120.77 2.13 11
7 06/03/2025 01:17:27 -79.56, -54.51 120.81 06/03/2025 01:18:01 -79.56, -54.45 120.83 1.38 34
8 06/03/2025 02:08:05 79.33, 114.65 58.81 06/03/2025 02:07:05 79.32, 114.79 58.81 3.15 60



Historial Predications of SNOs between NOAA-20 and PACE
